CAPE
0 0 0 0 0 0 0 0 0 0 0 0 0 0 0 0 0 0 0 0 0 4 6 0 0 0 1 8 3 0 0 0 1 0 0 1 1 3
0 0 0 0 0 0 0 0 0 0 0 0 0 0 0 0 0 0 0 0 0 1 5 0 0 0 0 1 0 0 0 1 1 2 2 1 1 1
0 0 0 0 0 0 0 0 0 0 0 0 0 0 0 0 0 0 0 0 0 0 2 0 0 0 0 0 0 0 0 1 1 2 3 1 0 0
0 0 0 0 0 0 0 0 0 0 0 0 0 0 0 0 0 0 0 0 0 0 0 0 0 0 0 3 0 0 3 3 2 1 1 0 0 0
0 0 0 0 0 0 0 0 0 0 0 0 0 0 0 0 0 0 0 0 0 0 1 0 0 0 0 8 2 1 2 0 0 0 0 0 0 0
0 0 0 0 0 0 0 0 0 0 0 0 0 0 0 0 0 0 0 0 0 0 0 0 0 1 2 0 3 0 0 0 0 0 0 0 0 0
0 0 0 0 0 0 0 0 0 0 0 0 0 0 0 0 0 0 0 0 0 0 0 0 0 0 0 2 1 1 0 0 0 0 0 0 0 0
0 0 0 0 0 0 0 0 0 0 0 0 0 0 0 0 0 0 0 0 0 0 0 0 0 0 0 0 0 0 0 0 0 0 0 0 0 0
0 0 0 0 0 0 0 0 0 0 0 0 0 0 0 0 0 0 0 0 0 0 0 0 0 0 0 0 0 0 0 0 0 1 0 0 0 0
0 0 0 0 0 0 0 0 0 0 0 0 0 0 0 0 0 0 0 0 0 0 0 0 0 0 0 0 0 1 0 0 0 0 0 0 0 0
0 0 0 0 0 0 0 0 0 0 0 0 0 0 0 0 0 0 0 0 0 0 0 0 0 0 0 0 0 2 5 0 0 0 0 0 0 0
0 0 0 0 0 0 0 0 0 0 0 0 0 0 0 0 0 0 0 0 0 0 0 0 0 0 0 0 0 0 3 16 5 0 0 0 0 0
0 0 0 0 0 0 0 0 0 0 0 0 0 0 0 0 0 0 0 0 0 0 0 0 0 0 0 0 0 0 0 0 3 7 15 4 4 0
0 0 0 0 0 0 0 0 0 0 0 0 0 0 0 0 0 0 0 0 0 0 0 0 0 0 0 0 0 0 0 0 0 0 0 0 5 3
0 0 0 0 0 0 0 0 0 0 0 1 0 0 0 0 0 0 0 0 0 0 0 0 0 0 0 0 0 0 0 0 0 0 0 0 0 0
0 0 0 0 0 0 0 0 0 0 0 0 0 0 0 0 0 0 0 0 0 0 0 0 0 0 0 0 0 0 0 0 0 0 0 0 0 0
0 0 0 0 0 0 0 0 0 0 0 0 0 0 0 0 0 0 0 0 0 0 0 0 0 0 0 0 0 0 0 0 0 0 0 0 0 0
0 0 0 0 0 0 0 0 0 0 0 0 0 0 0 0 0 0 0 0 0 0 0 0 0 0 0 0 1 0 0 0 0 0 0 0 0 0
0 0 0 0 0 0 0 0 0 0 0 0 0 0 0 0 0 0 0 0 0 0 0 0 0 0 0 0 0 0 0 0 0 0 0 0 0 0
0 0 0 0 0 0 0 0 0 0 0 0 0 0 0 0 0 0 0 0 0 0 0 0 0 0 0 0 0 0 0 0 0 0 0 0 0 0
1 0 0 0 0 0 0 0 0 0 0 0 0 0 0 0 0 0 0 1 1 0 0 0 0 4 0 0 0 0 0 0 0 0 0 0 0 0
1 1 1 1 1 1 0 0 0 0 0 0 0 0 0 0 0 0 0 0 0 0 0 0 0 0 0 0 0 0 0 0 0 0 0 0 0 0
1 2 2 2 2 2 2 1 0 1 0 0 0 0 0 0 0 0 0 0 0 0 0 0 0 0 0 0 0 0 0 0 0 0 0 0 0 0
CIN
-0 -0 -0 -0 -0 -0 -0 -0 -0 -0 -0 -0 -0 -0 -0 -0 -0 -0 -0 -0 -0 -5 -2 -0 -0 -0 -5 -0 -0 -0 -0 -0 -0 -0 -0 -0 -0 -0
-0 -0 -0 -0 -0 -0 -0 -0 -0 -0 -0 -0 -0 -0 -0 -0 -0 -0 -0 -0 -0 -2 -9 -0 -0 -0 -0 -1 -0 -0 -0 -0 -0 -0 -0 -0 -0 -0
-0 -0 -0 -0 -0 -0 -0 -0 -0 -0 -0 -0 -0 -0 -0 -0 -0 -0 -0 -0 -0 -0 -11 -0 -0 -0 -0 -0 -0 -0 -0 -0 -0 -0 -0 -0 -0 -0
-0 -0 -0 -0 -0 -0 -0 -0 -0 -0 -0 -0 -0 -0 -0 -0 -0 -0 -0 -0 -0 -0 -1 -0 -0 -0 -0 -0 -0 -0 -0 -0 -0 -0 -0 -0 -0 -0
-0 -0 -0 -0 -0 -0 -0 -0 -0 -0 -0 -0 -0 -0 -0 -0 -0 -0 -0 -0 -0 -0 -0 -0 -0 -0 -0 -0 -0 -0 -1 -0 -0 -0 -0 -0 -0 -0
-0 -0 -0 -0 -0 -0 -0 -0 -0 -0 -0 -0 -0 -0 -0 -0 -0 -0 -0 -0 -0 -0 -0 -0 -0 -0 -0 -0 -0 -0 -0 -0 -0 -0 -0 -0 -0 -0
-0 -0 -0 -0 -0 -0 -0 -0 -0 -0 -0 -0 -0 -0 -0 -0 -0 -0 -0 -0 -0 -0 -0 -0 -0 -0 -0 -0 -1 -5 -0 -0 -0 -0 -0 -0 -0 -0
-0 -0 -0 -0 -0 -0 -0 -0 -0 -0 -0 -0 -0 -0 -0 -0 -0 -0 -0 -0 -0 -0 -0 -0 -0 -0 -0 -0 -0 -0 -0 -0 -0 -0 -0 -0 -0 -0
-0 -0 -0 -0 -0 -0 -0 -0 -0 -0 -0 -0 -0 -0 -0 -0 -0 -0 -0 -0 -0 -0 -0 -0 -0 -0 -0 -0 -0 -0 -0 -0 -0 -0 -0 -0 -0 -0
-0 -0 -0 -0 -0 -0 -0 -0 -0 -0 -0 -0 -0 -0 -0 -0 -0 -0 -0 -0 -0 -0 -0 -0 -0 -0 -0 -0 -0 -0 -0 -0 -0 -0 -0 -0 -0 -0
-0 -0 -0 -0 -0 -0 -0 -0 -0 -0 -0 -0 -0 -0 -0 -0 -0 -0 -0 -0 -0 -0 -0 -0 -0 -0 -0 -0 -0 -0 -0 -0 -0 -0 -0 -0 -0 -0
-0 -0 -0 -0 -0 -0 -0 -0 -0 -0 -0 -0 -0 -0 -0 -0 -0 -0 -0 -0 -0 -0 -0 -0 -0 -0 -0 -0 -0 -0 -0 -0 -0 -0 -0 -0 -0 -0
-0 -0 -0 -0 -0 -0 -0 -0 -0 -0 -0 -0 -0 -0 -0 -0 -0 -0 -0 -0 -0 -0 -0 -0 -0 -0 -0 -0 -0 -0 -0 -0 -2 -1 -0 -0 -0 -0
-0 -0 -0 -0 -0 -0 -0 -0 -0 -0 -0 -0 -0 -0 -0 -0 -0 -0 -0 -0 -0 -0 -0 -0 -0 -0 -0 -0 -0 -0 -0 -0 -0 -0 -0 -2 -0 -0
-0 -0 -0 -0 -0 -0 -0 -0 -0 -0 -0 -0 -0 -0 -0 -0 -0 -0 -0 -0 -0 -0 -0 -0 -0 -0 -0 -0 -0 -0 -0 -0 -0 -0 -0 -0 -0 -0
-0 -0 -0 -0 -0 -0 -0 -0 -0 -0 -0 -0 -0 -0 -0 -0 -0 -0 -0 -0 -0 -0 -0 -0 -0 -0 -0 -0 -0 -0 -0 -0 -0 -0 -0 -0 -0 -0
-0 -0 -0 -0 -0 -0 -0 -0 -0 -0 -0 -0 -0 -0 -0 -0 -0 -0 -0 -0 -0 -0 -0 -0 -0 -0 -0 -0 -0 -0 -0 -0 -0 -0 -0 -0 -0 -0
-0 -0 -0 -0 -0 -0 -0 -0 -0 -0 -0 -0 -0 -0 -0 -0 -0 -0 -0 -0 -0 -0 -0 -0 -0 -0 -0 -0 -0 -0 -0 -0 -0 -0 -0 -0 -0 -0
-0 -0 -0 -0 -0 -0 -0 -0 -0 -0 -0 -0 -0 -0 -0 -0 -0 -0 -0 -0 -0 -0 -0 -0 -0 -0 -0 -0 -0 -0 -0 -0 -0 -0 -0 -0 -0 -0
-0 -0 -0 -0 -0 -0 -0 -0 -0 -0 -0 -0 -0 -0 -0 -0 -0 -0 -0 -0 -0 -0 -0 -0 -0 -0 -0 -0 -0 -0 -0 -0 -0 -0 -0 -0 -0 -0
-0 -0 -0 -0 -0 -0 -0 -0 -0 -0 -0 -0 -0 -0 -0 -0 -0 -0 -0 -0 -0 -0 -0 -0 -0 -0 -0 -0 -0 -0 -0 -0 -0 -0 -0 -0 -0 -0
-0 -0 -0 -0 -0 -0 -0 -0 -0 -0 -0 -0 -0 -0 -0 -0 -0 -0 -0 -0 -0 -0 -0 -0 -0 -0 -0 -0 -0 -0 -0 -0 -0 -0 -0 -0 -0 -0
-0 -0 -0 -0 -0 -0 -0 -0 -0 -0 -0 -0 -0 -0 -0 -0 -0 -0 -0 -0 -0 -0 -0 -0 -0 -0 -0 -0 -0 -0 -0 -0 -0 -0 -0 -0 -0 -0
Wind_Speed
8 7 7 4 4 4 4 4 5 3 4 4 4 5 5 4 6 6 5 7 9 9 9 8 9 3 3 6 8 8 7 7 7 7 7 6 8 9
6 8 7 4 5 4 4 4 3 5 3 4 5 3 5 5 6 5 6 6 10 9 11 12 10 7 6 9 9 8 8 7 7 7 7 7 7 8
8 10 10 7 6 5 4 3 4 4 4 2 1 2 4 5 4 5 4 4 3 9 13 14 11 9 7 10 10 10 9 9 8 8 7 7 7 6
11 10 10 7 7 6 6 7 5 5 4 5 4 4 4 3 3 5 4 4 4 6 12 12 12 11 10 11 10 10 9 9 8 8 8 7 7 7
11 12 10 10 9 6 7 7 6 5 4 4 4 1 1 2 2 1 2 3 4 7 10 13 13 13 12 12 12 10 9 7 6 5 7 7 7 6
10 11 9 11 12 10 9 10 7 7 5 4 3 3 3 2 1 3 3 1 4 3 6 7 10 12 14 15 15 14 12 10 11 10 8 6 6 6
8 8 8 10 12 11 7 8 8 8 6 7 4 3 4 3 6 4 4 3 3 4 4 4 4 4 5 13 10 12 13 14 14 13 13 11 10 9
6 5 6 10 11 14 15 13 13 10 10 7 6 6 9 5 4 5 4 4 3 6 6 6 5 5 5 4 9 15 15 16 15 15 15 14 13 11
6 6 5 5 8 7 11 11 12 15 11 12 9 11 6 8 7 6 7 5 5 2 9 7 4 7 4 5 12 16 18 17 17 17 16 15 14 14
9 9 8 7 8 8 7 7 9 9 11 7 10 8 8 10 12 10 10 6 3 2 5 4 3 6 4 4 15 17 19 18 17 17 18 17 16 15
7 7 8 9 10 14 8 8 8 9 9 14 10 7 10 16 11 7 6 6 3 3 6 4 3 3 3 4 7 18 20 20 20 20 19 18 16 15
5 7 12 9 10 12 9 8 8 8 6 4 5 8 9 12 20 12 9 9 4 1 4 5 3 4 2 3 7 8 10 21 20 19 20 20 18 4
4 3 4 9 10 10 12 7 7 5 6 5 4 3 4 6 7 7 8 7 5 2 6 6 3 3 1 1 2 3 7 7 8 11 20 18 18 13
2 2 2 7 7 8 8 9 9 6 3 4 3 3 3 4 4 4 5 3 3 2 10 7 4 6 5 3 3 1 3 4 5 6 5 11 19 20
3 4 3 2 3 4 7 7 6 4 4 3 4 3 2 3 6 5 5 6 5 3 6 7 3 6 4 4 4 4 4 5 4 4 5 7 8 4
5 5 5 6 5 2 3 1 3 3 4 3 3 3 3 3 2 2 3 2 3 2 3 3 5 5 3 2 3 3 3 4 5 6 5 4 3 4
5 4 3 4 4 3 4 3 3 3 3 3 2 2 2 2 2 2 2 3 2 4 3 1 3 3 3 4 2 4 4 2 2 3 4 6 5 7
6 5 5 4 4 3 4 3 3 4 2 1 2 2 3 3 3 2 1 2 3 3 3 2 2 2 1 2 8 3 3 3 3 5 2 4 4 6
7 5 5 5 5 5 4 3 2 2 1 1 2 3 3 2 4 2 3 2 2 2 2 3 4 3 4 4 2 16 5 3 3 2 4 4 4 2
7 6 6 5 5 5 5 4 3 3 2 2 2 2 3 3 2 2 3 3 2 2 2 2 4 6 6 4 3 3 15 5 6 4 4 2 2 2
6 7 6 6 6 6 5 5 4 4 3 3 2 2 2 1 1 2 2 4 4 2 3 5 6 7 2 3 1 2 2 16 6 4 3 3 2 1
6 6 6 6 6 6 6 5 5 6 5 4 3 2 1 0 1 2 2 2 3 3 4 2 3 4 3 5 7 3 1 1 10 11 9 9 7 4
6 6 6 6 6 6 6 5 5 5 5 4 4 3 2 2 1 1 1 1 2 2 2 2 2 3 4 5 6 3 3 2 3 4 7 14 12 5
Wind_Direction
184 171 179 170 163 164 158 158 149 164 235 240 217 206 197 179 198 189 201 229 222 208 187 165 140 194 265 168 168 161 163 162 157 143 129 118 106 98
177 174 189 161 177 173 171 176 165 159 211 192 219 188 188 193 194 190 200 210 222 205 164 151 162 173 172 154 173 173 183 181 176 160 147 135 120 110
180 182 196 171 188 186 182 178 176 163 195 237 192 173 180 182 175 180 177 197 234 205 168 164 169 174 181 171 178 186 194 193 190 176 163 152 135 126
190 184 196 183 196 184 190 198 189 185 174 205 175 197 203 205 176 174 172 174 190 214 180 177 180 185 195 187 184 192 197 200 199 186 176 168 160 156
191 196 197 182 200 191 197 197 199 195 184 162 188 137 144 164 127 123 176 169 175 216 205 188 194 198 197 199 189 195 192 184 173 175 181 185 181 172
187 196 192 191 205 199 199 203 189 187 176 189 171 169 167 176 140 150 184 223 190 193 218 191 201 209 204 210 196 194 180 176 182 186 190 195 193 186
190 201 199 202 204 197 193 207 184 193 183 191 171 162 182 171 190 171 197 138 221 187 189 201 178 189 205 218 216 197 179 187 197 197 200 201 198 196
180 184 192 202 211 212 211 199 192 189 199 193 204 208 207 188 154 161 142 143 219 191 194 214 172 197 200 200 210 188 189 196 206 207 206 205 205 201
193 193 208 211 205 213 221 228 214 210 195 196 204 213 202 187 151 165 186 170 197 183 179 209 161 214 192 208 212 197 192 200 206 210 208 211 207 204
199 196 207 197 199 197 206 217 224 226 231 232 219 214 208 176 189 184 184 173 85 135 167 185 158 204 165 191 212 208 202 206 207 212 214 214 212 211
193 194 202 209 193 196 198 212 224 229 221 222 227 211 181 173 171 131 157 167 182 193 193 146 174 131 175 212 214 216 209 211 211 212 217 218 217 217
193 197 206 205 193 198 204 205 213 217 195 205 230 233 196 187 173 185 170 184 138 142 208 166 126 133 217 223 212 216 217 216 213 213 215 220 217 210
185 175 199 214 219 208 209 204 214 185 200 206 207 194 180 180 186 189 178 178 167 166 182 154 149 145 136 134 275 216 216 221 215 217 219 217 219 207
167 153 211 218 222 220 214 223 217 191 158 168 158 166 163 163 163 158 154 134 110 137 160 172 156 164 165 138 224 188 215 215 201 210 202 211 221 224
85 82 66 9 307 285 253 220 208 161 148 148 174 173 183 132 116 104 91 101 88 98 162 180 149 157 170 172 174 175 159 203 191 180 182 192 197 183
80 77 90 91 70 67 63 170 129 153 164 163 154 117 115 107 102 103 108 119 103 106 65 160 153 161 153 145 128 161 204 188 185 206 195 196 190 185
83 52 32 33 50 34 40 43 75 90 105 127 125 124 102 94 103 105 102 111 158 160 150 117 80 87 62 126 184 206 191 207 182 163 174 214 216 212
71 66 59 50 43 57 61 58 40 53 55 90 105 115 129 137 124 119 106 153 179 164 152 142 126 101 69 273 217 189 194 189 170 170 159 177 237 223
74 64 59 47 41 45 50 52 65 33 40 67 93 114 114 117 128 152 127 127 151 146 150 149 166 163 179 214 279 205 182 185 146 172 182 186 208 229
59 63 63 57 51 48 41 41 33 33 39 58 74 108 124 124 129 156 171 153 148 154 158 157 186 198 204 209 195 259 211 184 182 197 182 190 254 272
50 50 40 43 43 40 32 35 36 37 44 46 50 47 61 89 134 164 176 203 189 165 206 214 219 209 124 108 298 261 244 219 190 165 157 138 160 206
47 49 40 41 41 39 34 30 36 35 33 34 34 42 52 70 196 179 186 188 201 198 227 218 165 163 161 201 237 213 234 263 226 221 200 176 163 192
29 34 39 36 31 26 23 25 31 33 31 28 25 26 24 6 338 297 256 220 225 235 218 226 181 180 206 210 217 202 212 227 181 192 236 231 230 213